TimePDT,TemperatureF,Dew PointF,Humidity,Sea Level PressureIn,VisibilityMPH,Wind Direction,Wind SpeedMPH,Gust SpeedMPH,PrecipitationIn,Events,Conditions,WindDirDegrees,DateUTC
12:15 AM,48.2,12.2,24,30.13,10.0,NNW,11.5,-,N/A,,Clear,330,2012-10-03 07:15:00
12:35 AM,50.0,12.2,22,30.14,10.0,North,15.0,19.6,N/A,,Clear,350,2012-10-03 07:35:00
12:55 AM,55.4,10.4,17,30.15,10.0,North,16.1,-,N/A,,Clear,360,2012-10-03 07:55:00
1:15 AM,53.6,10.4,18,30.16,10.0,North,15.0,-,N/A,,Clear,350,2012-10-03 08:15:00
1:35 AM,53.6,10.4,18,30.17,10.0,North,12.7,-,N/A,,Clear,350,2012-10-03 08:35:00
1:55 AM,48.2,8.6,20,30.17,10.0,NNW,12.7,-,N/A,,Clear,340,2012-10-03 08:55:00
2:15 AM,46.4,12.2,25,30.17,10.0,NNW,15.0,-,N/A,,Clear,330,2012-10-03 09:15:00
2:35 AM,46.4,12.2,25,30.17,10.0,NNW,15.0,-,N/A,,Clear,340,2012-10-03 09:35:00
2:55 AM,44.6,10.4,25,30.17,10.0,NNW,10.4,-,N/A,,Clear,330,2012-10-03 09:55:00
3:15 AM,44.6,12.2,27,30.17,10.0,NW,4.6,-,N/A,,Clear,310,2012-10-03 10:15:00
3:55 AM,41.0,10.4,29,30.17,10.0,NW,15.0,-,N/A,,Clear,320,2012-10-03 10:55:00
4:15 AM,39.2,10.4,31,30.17,10.0,NW,12.7,-,N/A,,Clear,320,2012-10-03 11:15:00
4:35 AM,39.2,12.2,33,30.18,10.0,NW,15.0,-,N/A,,Clear,320,2012-10-03 11:35:00
4:55 AM,39.2,10.4,31,30.18,10.0,NNW,15.0,-,N/A,,Clear,340,2012-10-03 11:55:00
5:15 AM,37.4,10.4,33,30.18,10.0,NNW,13.8,-,N/A,,Clear,340,2012-10-03 12:15:00
5:35 AM,44.6,12.2,27,30.18,10.0,North,17.3,-,N/A,,Clear,350,2012-10-03 12:35:00
5:55 AM,46.4,15.8,29,30.18,10.0,North,21.9,29.9,N/A,,Clear,350,2012-10-03 12:55:00
6:15 AM,44.6,10.4,25,30.19,10.0,North,25.3,29.9,N/A,,Clear,350,2012-10-03 13:15:00
6:35 AM,42.8,12.2,29,30.19,10.0,North,20.7,26.5,N/A,,Clear,350,2012-10-03 13:35:00
6:55 AM,42.8,10.4,27,30.19,10.0,North,23.0,32.2,N/A,,Clear,350,2012-10-03 13:55:00
7:15 AM,42.8,12.2,29,30.20,10.0,NNW,21.9,31.1,N/A,,Clear,340,2012-10-03 14:15:00
7:35 AM,42.8,10.4,27,30.20,10.0,North,21.9,33.4,N/A,,Clear,350,2012-10-03 14:35:00
7:55 AM,42.8,10.4,27,30.21,10.0,NNW,20.7,28.8,N/A,,Clear,340,2012-10-03 14:55:00
8:15 AM,44.6,12.2,27,30.21,10.0,NNW,25.3,32.2,N/A,,Clear,340,2012-10-03 15:15:00
8:35 AM,44.6,12.2,27,30.21,10.0,NNW,23.0,31.1,N/A,,Clear,340,2012-10-03 15:35:00
8:55 AM,46.4,12.2,25,30.21,10.0,NNW,20.7,26.5,N/A,,Clear,340,2012-10-03 15:55:00
9:15 AM,48.2,12.2,24,30.22,10.0,North,20.7,26.5,N/A,,Clear,350,2012-10-03 16:15:00
9:35 AM,48.2,12.2,24,30.22,10.0,NNW,17.3,25.3,N/A,,Clear,340,2012-10-03 16:35:00
9:55 AM,50.0,12.2,22,30.23,10.0,North,20.7,28.8,N/A,,Clear,350,2012-10-03 16:55:00
10:15 AM,51.8,14.0,22,30.23,10.0,NNW,17.3,27.6,N/A,,Clear,340,2012-10-03 17:15:00
10:35 AM,53.6,14.0,21,30.22,10.0,NNW,17.3,25.3,N/A,,Clear,340,2012-10-03 17:35:00
10:55 AM,55.4,15.8,21,30.22,10.0,NNW,18.4,24.2,N/A,,Clear,340,2012-10-03 17:55:00
11:15 AM,55.4,15.8,21,30.21,10.0,NNW,19.6,25.3,N/A,,Clear,340,2012-10-03 18:15:00
11:35 AM,57.2,15.8,20,30.21,10.0,North,17.3,27.6,N/A,,Clear,350,2012-10-03 18:35:00
11:55 AM,59.0,15.8,19,30.21,10.0,NNW,17.3,25.3,N/A,,Clear,340,2012-10-03 18:55:00
12:15 PM,60.8,17.6,19,30.21,10.0,NNW,17.3,21.9,N/A,,Clear,340,2012-10-03 19:15:00
12:35 PM,62.6,17.6,18,30.20,10.0,North,17.3,21.9,N/A,,Clear,350,2012-10-03 19:35:00
12:55 PM,62.6,17.6,18,30.19,10.0,North,15.0,-,N/A,,Clear,350,2012-10-03 19:55:00
1:15 PM,64.4,17.6,16,30.19,10.0,North,18.4,21.9,N/A,,Clear,350,2012-10-03 20:15:00
1:35 PM,64.4,17.6,16,30.18,10.0,NNW,16.1,21.9,N/A,,Clear,340,2012-10-03 20:35:00
1:55 PM,64.4,17.6,16,30.17,10.0,North,16.1,21.9,N/A,,Clear,350,2012-10-03 20:55:00
2:15 PM,66.2,17.6,15,30.17,10.0,NNW,17.3,23.0,N/A,,Clear,330,2012-10-03 21:15:00
2:35 PM,66.2,17.6,15,30.16,10.0,North,17.3,21.9,N/A,,Clear,350,2012-10-03 21:35:00
2:55 PM,66.2,17.6,15,30.16,10.0,North,17.3,-,N/A,,Clear,350,2012-10-03 21:55:00
3:15 PM,66.2,17.6,15,30.15,10.0,NNW,13.8,-,N/A,,Clear,340,2012-10-03 22:15:00
3:55 PM,66.2,15.8,14,30.15,10.0,North,15.0,-,N/A,,Clear,350,2012-10-03 22:55:00
4:15 PM,66.2,15.8,14,30.15,10.0,North,15.0,-,N/A,,Clear,350,2012-10-03 23:15:00
4:35 PM,66.2,15.8,14,30.14,10.0,NNW,15.0,19.6,N/A,,Clear,340,2012-10-03 23:35:00
4:55 PM,64.4,15.8,15,30.14,10.0,NNW,20.7,-,N/A,,Clear,340,2012-10-03 23:55:00
5:15 PM,64.4,14.0,14,30.14,10.0,North,15.0,23.0,N/A,,Clear,350,2012-10-04 00:15:00
5:35 PM,62.6,15.8,16,30.14,10.0,NNW,17.3,-,N/A,,Clear,340,2012-10-04 00:35:00
5:55 PM,60.8,14.0,16,30.14,10.0,North,17.3,21.9,N/A,,Clear,350,2012-10-04 00:55:00
6:15 PM,59.0,14.0,17,30.14,10.0,NNW,16.1,20.7,N/A,,Clear,340,2012-10-04 01:15:00
6:35 PM,55.4,12.2,18,30.14,10.0,North,16.1,19.6,N/A,,Clear,350,2012-10-04 01:35:00
6:55 PM,55.4,12.2,18,30.14,10.0,North,13.8,-,N/A,,Clear,350,2012-10-04 01:55:00
7:15 PM,55.4,10.4,17,30.14,10.0,North,17.3,21.9,N/A,,Clear,350,2012-10-04 02:15:00
7:35 PM,53.6,10.4,18,30.14,10.0,North,16.1,-,N/A,,Clear,350,2012-10-04 02:35:00
7:55 PM,53.6,10.4,18,30.15,10.0,North,17.3,-,N/A,,Clear,350,2012-10-04 02:55:00
8:15 PM,53.6,12.2,19,30.14,10.0,North,16.1,-,N/A,,Clear,350,2012-10-04 03:15:00
8:35 PM,51.8,12.2,21,30.15,10.0,North,12.7,-,N/A,,Clear,350,2012-10-04 03:35:00
8:55 PM,53.6,12.2,19,30.15,10.0,NNW,15.0,18.4,N/A,,Clear,340,2012-10-04 03:55:00
9:15 PM,51.8,12.2,21,30.15,10.0,North,13.8,-,N/A,,Clear,350,2012-10-04 04:15:00
9:35 PM,51.8,12.2,21,30.15,10.0,North,13.8,-,N/A,,Clear,350,2012-10-04 04:35:00
9:55 PM,51.8,12.2,21,30.16,10.0,North,16.1,20.7,N/A,,Clear,350,2012-10-04 04:55:00
10:15 PM,51.8,12.2,21,30.16,10.0,North,17.3,-,N/A,,Clear,350,2012-10-04 05:15:00
10:35 PM,51.8,12.2,21,30.17,10.0,NNW,16.1,20.7,N/A,,Clear,340,2012-10-04 05:35:00
10:55 PM,50.0,10.4,20,30.17,10.0,NNW,16.1,20.7,N/A,,Clear,340,2012-10-04 05:55:00
11:15 PM,48.2,10.4,22,30.17,10.0,NNW,12.7,-,N/A,,Clear,340,2012-10-04 06:15:00
11:35 PM,44.6,12.2,27,30.18,10.0,NNW,11.5,-,N/A,,Clear,330,2012-10-04 06:35:00
11:55 PM,44.6,12.2,27,30.17,10.0,NNW,11.5,-,N/A,,Clear,340,2012-10-04 06:55:00